| time (UTC) | temp F | wind direction | speed knots | gust knots | rain 1hr in | rain 24hr in | rain mn in | humidity % | barometer mb |
| 20260507164058 | 89 | 190 | 0.0 | 0.0 | 0.00 | 0.00 | 0.00 | 41 | 1011.6 |
| 20260507163559 | 88 | 190 | 0.0 | 2.6 | 0.00 | 0.00 | 0.00 | 43 | 1011.7 |
| 20260507163059 | 88 | 0 | 0.9 | 2.6 | 0.00 | 0.00 | 0.00 | 43 | 1011.4 |
| 20260507163055 | 87 | 190 | 0.0 | 2.6 | 0.00 | 0.00 | 0.00 | 43 | 1011.8 |
| 20260507162556 | 87 | 190 | 0.9 | 2.6 | 0.00 | 0.00 | 0.00 | 43 | 1011.8 |
| 20260507162054 | 87 | 190 | 0.0 | 2.6 | 0.00 | 0.00 | 0.00 | 44 | 1011.9 |
| 20260507161610 | 87 | 190 | 0.0 | 2.6 | 0.00 | 0.00 | 0.00 | 44 | 1011.6 |
| 20260507161558 | 87 | 190 | 0.0 | 2.6 | 0.00 | 0.00 | 0.00 | 44 | 1012.0 |
| 20260507161051 | 86 | 190 | 0.0 | 2.6 | 0.00 | 0.00 | 0.00 | 45 | 1012.1 |
| 20260507160550 | 86 | 190 | 0.0 | 1.7 | 0.00 | 0.00 | 0.00 | 46 | 1012.1 |
| 20260507160051 | 85 | 190 | 0.0 | 2.6 | 0.00 | 0.00 | 0.00 | 46 | 1012.2 |
| 20260507155550 | 85 | 190 | 0.0 | 3.5 | 0.00 | 0.00 | 0.00 | 46 | 1012.4 |
| 20260507155050 | 85 | 190 | 0.9 | 3.5 | 0.00 | 0.00 | 0.00 | 46 | 1012.5 |
| 20260507154558 | 85 | 0 | 0.0 | 2.6 | 0.00 | 0.00 | 0.00 | 46 | 1012.1 |
| 20260507154551 | 85 | 190 | 0.0 | 2.6 | 0.00 | 0.00 | 0.00 | 47 | 1012.5 |
| 20260507154048 | 84 | 190 | 0.0 | 2.6 | 0.00 | 0.00 | 0.00 | 47 | 1012.6 |
| 20260507153547 | 84 | 190 | 0.0 | 1.7 | 0.00 | 0.00 | 0.00 | 48 | 1012.6 |
| 20260507153059 | 84 | 190 | 0.9 | 2.6 | 0.00 | 0.00 | 0.00 | 47 | 1012.1 |
| 20260507153049 | 84 | 190 | 0.9 | 2.6 | 0.00 | 0.00 | 0.00 | 48 | 1012.6 |
| 20260507152546 | 84 | 190 | 0.0 | 2.6 | 0.00 | 0.00 | 0.00 | 48 | 1012.6 |
| 20260507152047 | 84 | 190 | 0.0 | 2.6 | 0.00 | 0.00 | 0.00 | 49 | 1012.7 |
| 20260507151558 | 83 | 190 | 0.0 | 1.7 | 0.00 | 0.00 | 0.00 | 49 | 1012.2 |
| 20260507151545 | 83 | 190 | 0.0 | 1.7 | 0.00 | 0.00 | 0.00 | 49 | 1012.7 |
| 20260507151042 | 83 | 190 | 0.0 | 1.7 | 0.00 | 0.00 | 0.00 | 50 | 1012.7 |
| 20260507150541 | 82 | 190 | 0.0 | 1.7 | 0.00 | 0.00 | 0.00 | 50 | 1012.7 |
| 20260507150100 | 83 | 0 | 0.0 | 0.0 | 0.00 | 0.00 | 0.00 | 50 | 1012.3 |
| 20260507150042 | 82 | 190 | 0.0 | 0.0 | 0.00 | 0.00 | 0.00 | 50 | 1012.8 |
| 20260507145541 | 82 | 190 | 0.0 | 0.0 | 0.00 | 0.00 | 0.00 | 51 | 1012.8 |
| 20260507145040 | 82 | 190 | 0.0 | 0.0 | 0.00 | 0.00 | 0.00 | 51 | 1012.8 |
| 20260507144600 | 82 | 0 | 0.0 | 0.0 | 0.00 | 0.00 | 0.00 | 51 | 1012.2 |
| 20260507144538 | 82 | 190 | 0.0 | 0.0 | 0.00 | 0.00 | 0.00 | 51 | 1012.8 |
| 20260507144037 | 81 | 190 | 0.0 | 0.0 | 0.00 | 0.00 | 0.00 | 53 | 1012.8 |
| 20260507143535 | 81 | 190 | 0.0 | 0.0 | 0.00 | 0.00 | 0.00 | 53 | 1012.8 |
| 20260507143102 | 80 | 0 | 0.0 | 0.0 | 0.00 | 0.00 | 0.00 | 54 | 1012.3 |
| 20260507143036 | 80 | 190 | 0.0 | 0.0 | 0.00 | 0.00 | 0.00 | 54 | 1012.8 |
| 20260507142533 | 79 | 190 | 0.0 | 0.0 | 0.00 | 0.00 | 0.00 | 56 | 1012.8 |
| 20260507142033 | 78 | 190 | 0.0 | 0.0 | 0.00 | 0.00 | 0.00 | 56 | 1012.8 |
| 20260507141603 | 78 | 0 | 0.0 | 0.0 | 0.00 | 0.00 | 0.00 | 57 | 1012.2 |
| 20260507141533 | 77 | 190 | 0.0 | 0.0 | 0.00 | 0.00 | 0.00 | 58 | 1012.9 |
| 20260507141033 | 77 | 190 | 0.0 | 0.0 | 0.00 | 0.00 | 0.00 | 59 | 1012.8 |
| 20260507140532 | 76 | 190 | 0.0 | 0.0 | 0.00 | 0.00 | 0.00 | 60 | 1012.8 |
| 20260507140125 | 76 | 0 | 0.0 | 0.0 | 0.00 | 0.00 | 0.00 | 60 | 1012.1 |
| 20260507140032 | 76 | 190 | 0.0 | 0.0 | 0.00 | 0.00 | 0.00 | 60 | 1012.8 |
| 20260507135532 | 75 | 190 | 0.0 | 0.0 | 0.00 | 0.00 | 0.00 | 62 | 1012.8 |
| 20260507135032 | 75 | 190 | 0.0 | 0.0 | 0.00 | 0.00 | 0.00 | 62 | 1012.8 |
| 20260507134600 | 74 | 0 | 0.0 | 0.9 | 0.00 | 0.00 | 0.00 | 62 | 1012.0 |
| 20260507134539 | 74 | 190 | 0.0 | 0.0 | 0.00 | 0.00 | 0.00 | 63 | 1012.8 |
| 20260507134032 | 74 | 190 | 0.0 | 0.9 | 0.00 | 0.00 | 0.00 | 63 | 1012.7 |
| 20260507133529 | 73 | 190 | 0.0 | 0.9 | 0.00 | 0.00 | 0.00 | 64 | 1012.7 |
| 20260507133100 | 73 | 0 | 0.0 | 0.9 | 0.00 | 0.00 | 0.00 | 64 | 1011.8 |
| 20260507133030 | 73 | 190 | 0.0 | 0.9 | 0.00 | 0.00 | 0.00 | 65 | 1012.7 |
| 20260507132529 | 72 | 190 | 0.0 | 0.9 | 0.00 | 0.00 | 0.00 | 65 | 1012.6 |
| 20260507132029 | 72 | 190 | 0.0 | 0.0 | 0.00 | 0.00 | 0.00 | 66 | 1012.6 |
| 20260507131616 | 72 | 0 | 0.0 | 0.0 | 0.00 | 0.00 | 0.00 | 66 | 1011.7 |
| 20260507131535 | 72 | 190 | 0.0 | 0.0 | 0.00 | 0.00 | 0.00 | 66 | 1012.5 |
| 20260507131028 | 71 | 190 | 0.0 | 0.0 | 0.00 | 0.00 | 0.00 | 67 | 1012.4 |
| 20260507130526 | 71 | 190 | 0.0 | 1.7 | 0.00 | 0.00 | 0.00 | 67 | 1012.3 |
| 20260507130112 | 71 | 0 | 0.9 | 2.6 | 0.00 | 0.00 | 0.00 | 67 | 1011.5 |
| 20260507130029 | 71 | 190 | 0.9 | 1.7 | 0.00 | 0.00 | 0.00 | 67 | 1012.2 |
| 20260507125525 | 71 | 190 | 0.0 | 2.6 | 0.00 | 0.00 | 0.00 | 67 | 1012.1 |
| 20260507125023 | 71 | 190 | 0.0 | 2.6 | 0.00 | 0.00 | 0.00 | 68 | 1012.0 |
| 20260507124609 | 71 | 0 | 0.0 | 0.0 | 0.00 | 0.00 | 0.00 | 67 | 1011.3 |
| 20260507124523 | 71 | 190 | 0.0 | 0.0 | 0.00 | 0.00 | 0.00 | 68 | 1012.0 |
| 20260507124022 | 71 | 190 | 0.0 | 0.0 | 0.00 | 0.00 | 0.00 | 67 | 1011.9 |
| 20260507123524 | 71 | 190 | 0.0 | 0.0 | 0.00 | 0.00 | 0.00 | 67 | 1011.9 |
| 20260507123101 | 71 | 0 | 0.0 | 0.0 | 0.00 | 0.00 | 0.00 | 67 | 1011.2 |
| 20260507123022 | 71 | 190 | 0.0 | 0.0 | 0.00 | 0.00 | 0.00 | 67 | 1011.8 |
| 20260507122521 | 70 | 190 | 0.0 | 0.0 | 0.00 | 0.00 | 0.00 | 68 | 1011.8 |
| 20260507122022 | 70 | 190 | 0.0 | 1.7 | 0.00 | 0.00 | 0.00 | 68 | 1011.8 |
| 20260507121558 | 70 | 0 | 0.0 | 1.7 | 0.00 | 0.00 | 0.00 | 67 | 1011.2 |
| 20260507121521 | 70 | 190 | 0.0 | 1.7 | 0.00 | 0.00 | 0.00 | 68 | 1011.8 |
| 20260507121020 | 71 | 190 | 0.0 | 1.7 | 0.00 | 0.00 | 0.00 | 67 | 1011.7 |
| 20260507120519 | 71 | 190 | 0.0 | 0.0 | 0.00 | 0.00 | 0.00 | 67 | 1011.6 |
| 20260507120058 | 71 | 0 | 0.0 | 0.0 | 0.00 | 0.00 | 0.00 | 67 | 1011.1 |
| 20260507120018 | 71 | 190 | 0.0 | 0.0 | 0.00 | 0.00 | 0.00 | 68 | 1011.6 |
| 20260507115517 | 71 | 190 | 0.0 | 0.0 | 0.00 | 0.00 | 0.00 | 68 | 1011.4 |
| 20260507115016 | 71 | 190 | 0.0 | 0.0 | 0.00 | 0.00 | 0.00 | 67 | 1011.4 |
| 20260507114605 | 71 | 0 | 0.0 | 0.0 | 0.00 | 0.00 | 0.00 | 66 | 1010.7 |
| 20260507114524 | 71 | 190 | 0.0 | 0.0 | 0.00 | 0.00 | 0.00 | 67 | 1011.3 |
| 20260507114015 | 71 | 190 | 0.0 | 0.0 | 0.00 | 0.00 | 0.00 | 66 | 1011.2 |
| 20260507113513 | 71 | 190 | 0.0 | 0.0 | 0.00 | 0.00 | 0.00 | 66 | 1011.2 |
| 20260507113100 | 71 | 0 | 0.0 | 0.0 | 0.00 | 0.00 | 0.00 | 65 | 1010.7 |
| 20260507113013 | 71 | 190 | 0.0 | 0.0 | 0.00 | 0.00 | 0.00 | 66 | 1011.2 |
| 20260507112513 | 71 | 190 | 0.0 | 0.0 | 0.00 | 0.00 | 0.00 | 66 | 1011.2 |
| 20260507112012 | 72 | 190 | 0.0 | 0.9 | 0.00 | 0.00 | 0.00 | 65 | 1011.2 |
| 20260507111556 | 72 | 0 | 0.0 | 1.7 | 0.00 | 0.00 | 0.00 | 64 | 1010.6 |
| 20260507111519 | 72 | 190 | 0.0 | 0.9 | 0.00 | 0.00 | 0.00 | 65 | 1011.1 |
| 20260507111010 | 72 | 190 | 0.0 | 1.7 | 0.00 | 0.00 | 0.00 | 65 | 1011.0 |
| 20260507110511 | 72 | 190 | 0.0 | 1.7 | 0.00 | 0.00 | 0.00 | 64 | 1010.9 |
| 20260507110057 | 72 | 190 | 0.0 | 1.7 | 0.00 | 0.00 | 0.00 | 63 | 1010.4 |
| 20260507110009 | 72 | 190 | 0.0 | 1.7 | 0.00 | 0.00 | 0.00 | 64 | 1010.9 |
| 20260507105508 | 73 | 190 | 0.0 | 0.0 | 0.00 | 0.00 | 0.00 | 64 | 1010.8 |
| 20260507105007 | 73 | 190 | 0.0 | 0.0 | 0.00 | 0.00 | 0.00 | 63 | 1010.7 |
| 20260507104556 | 73 | 0 | 0.0 | 0.0 | 0.00 | 0.00 | 0.00 | 63 | 1010.3 |
| 20260507104508 | 73 | 190 | 0.0 | 0.0 | 0.00 | 0.00 | 0.00 | 63 | 1010.7 |
| 20260507104007 | 73 | 190 | 0.0 | 0.0 | 0.00 | 0.00 | 0.00 | 63 | 1010.7 |
| 20260507103507 | 73 | 190 | 0.0 | 1.7 | 0.00 | 0.00 | 0.00 | 63 | 1010.8 |
| 20260507103059 | 73 | 190 | 0.0 | 2.6 | 0.00 | 0.00 | 0.00 | 63 | 1010.3 |
| 20260507103005 | 73 | 190 | 0.0 | 2.6 | 0.00 | 0.00 | 0.00 | 63 | 1010.7 |
| 20260507102505 | 73 | 190 | 0.9 | 2.6 | 0.00 | 0.00 | 0.00 | 63 | 1010.7 |
| 20260507102006 | 73 | 190 | 0.0 | 0.0 | 0.00 | 0.00 | 0.00 | 62 | 1010.7 |
| 20260507101556 | 74 | 0 | 0.0 | 0.0 | 0.00 | 0.00 | 0.00 | 62 | 1010.2 |
| 20260507101508 | 74 | 190 | 0.0 | 0.0 | 0.00 | 0.00 | 0.00 | 62 | 1010.7 |
| 20260507101002 | 74 | 190 | 0.0 | 0.0 | 0.00 | 0.00 | 0.00 | 62 | 1010.7 |
| 20260507100502 | 74 | 190 | 0.0 | 0.0 | 0.00 | 0.00 | 0.00 | 62 | 1010.6 |
| 20260507100058 | 74 | 0 | 0.0 | 1.7 | 0.00 | 0.00 | 0.00 | 61 | 1010.2 |
| 20260507100001 | 74 | 190 | 0.0 | 1.7 | 0.00 | 0.00 | 0.00 | 62 | 1010.7 |
| 20260507095501 | 74 | 190 | 0.0 | 1.7 | 0.00 | 0.00 | 0.00 | 62 | 1010.7 |
| 20260507095100 | 74 | 190 | 0.0 | 1.7 | 0.00 | 0.00 | 0.00 | 62 | 1010.6 |
| 20260507094613 | 74 | 190 | 0.0 | 1.7 | 0.00 | 0.00 | 0.00 | 61 | 1010.5 |
| 20260507094600 | 75 | 0 | 0.9 | 1.7 | 0.00 | 0.00 | 0.00 | 60 | 1010.1 |
| 20260507094058 | 75 | 190 | 0.0 | 0.0 | 0.00 | 0.00 | 0.00 | 60 | 1010.6 |
| 20260507093541 | 75 | 190 | 0.0 | 0.0 | 0.00 | 0.00 | 0.00 | 60 | 1010.6 |
| 20260507093058 | 75 | 0 | 0.0 | 0.0 | 0.00 | 0.00 | 0.00 | 59 | 1010.0 |
| 20260507093042 | 75 | 190 | 0.0 | 0.0 | 0.00 | 0.00 | 0.00 | 60 | 1010.5 |
| 20260507092541 | 75 | 190 | 0.0 | 0.0 | 0.00 | 0.00 | 0.00 | 60 | 1010.5 |
| 20260507092042 | 75 | 190 | 0.0 | 0.0 | 0.00 | 0.00 | 0.00 | 60 | 1010.5 |
| 20260507091606 | 76 | 0 | 0.0 | 0.0 | 0.00 | 0.00 | 0.00 | 59 | 1010.1 |
| 20260507091552 | 75 | 190 | 0.0 | 0.0 | 0.00 | 0.00 | 0.00 | 60 | 1010.5 |
| 20260507091040 | 75 | 190 | 0.0 | 0.0 | 0.00 | 0.00 | 0.00 | 60 | 1010.5 |
| 20260507090540 | 75 | 190 | 0.0 | 0.0 | 0.00 | 0.00 | 0.00 | 60 | 1010.6 |
| 20260507090057 | 75 | 0 | 0.0 | 0.0 | 0.00 | 0.00 | 0.00 | 60 | 1010.0 |
| 20260507090045 | 75 | 190 | 0.0 | 0.0 | 0.00 | 0.00 | 0.00 | 60 | 1010.6 |
| 20260507085539 | 75 | 190 | 0.0 | 0.0 | 0.00 | 0.00 | 0.00 | 60 | 1010.6 |
| 20260507085039 | 75 | 190 | 0.0 | 2.6 | 0.00 | 0.00 | 0.00 | 60 | 1010.7 |
| 20260507084558 | 75 | 0 | 0.0 | 2.6 | 0.00 | 0.00 | 0.00 | 59 | 1010.3 |
| 20260507084541 | 75 | 190 | 0.0 | 2.6 | 0.00 | 0.00 | 0.00 | 60 | 1010.7 |
| 20260507084037 | 75 | 190 | 0.9 | 2.6 | 0.00 | 0.00 | 0.00 | 60 | 1010.7 |
| 20260507083537 | 75 | 190 | 0.0 | 3.5 | 0.00 | 0.00 | 0.00 | 59 | 1010.6 |
| 20260507083104 | 75 | 0 | 0.9 | 3.5 | 0.00 | 0.00 | 0.00 | 59 | 1010.2 |
| 20260507083039 | 75 | 190 | 0.9 | 3.5 | 0.00 | 0.00 | 0.00 | 59 | 1010.6 |
| 20260507082536 | 76 | 190 | 0.0 | 2.6 | 0.00 | 0.00 | 0.00 | 59 | 1010.6 |
| 20260507082035 | 76 | 190 | 0.0 | 2.6 | 0.00 | 0.00 | 0.00 | 59 | 1010.7 |
| 20260507081557 | 76 | 190 | 0.0 | 2.6 | 0.00 | 0.00 | 0.00 | 58 | 1010.3 |
| 20260507081534 | 76 | 190 | 0.0 | 2.6 | 0.00 | 0.00 | 0.00 | 58 | 1010.7 |
| 20260507081033 | 76 | 190 | 0.9 | 2.6 | 0.00 | 0.00 | 0.00 | 58 | 1010.7 |
| 20260507080532 | 77 | 190 | 0.0 | 1.7 | 0.00 | 0.00 | 0.00 | 57 | 1010.7 |
| 20260507080134 | 77 | 0 | 0.0 | 3.5 | 0.00 | 0.00 | 0.00 | 57 | 1010.3 |
| 20260507080031 | 76 | 190 | 0.0 | 3.5 | 0.00 | 0.00 | 0.00 | 57 | 1010.7 |
| 20260507075530 | 77 | 190 | 1.7 | 3.5 | 0.00 | 0.00 | 0.00 | 57 | 1010.8 |
| 20260507075029 | 77 | 190 | 0.0 | 4.3 | 0.00 | 0.00 | 0.00 | 56 | 1010.9 |
| 20260507074605 | 78 | 190 | 0.0 | 3.5 | 0.00 | 0.00 | 0.00 | 56 | 1010.6 |
| 20260507074538 | 78 | 190 | 0.9 | 3.5 | 0.00 | 0.00 | 0.00 | 56 | 1010.9 |
| 20260507074026 | 78 | 190 | 0.0 | 0.0 | 0.00 | 0.00 | 0.00 | 56 | 1010.9 |
| 20260507073525 | 78 | 190 | 0.0 | 0.0 | 0.00 | 0.00 | 0.00 | 55 | 1010.9 |
| 20260507073111 | 79 | 0 | 0.0 | 0.0 | 0.00 | 0.00 | 0.00 | 55 | 1010.7 |
| 20260507073025 | 78 | 190 | 0.0 | 0.0 | 0.00 | 0.00 | 0.00 | 55 | 1011.0 |
| 20260507072525 | 78 | 190 | 0.0 | 0.0 | 0.00 | 0.00 | 0.00 | 55 | 1011.0 |
| 20260507072024 | 78 | 190 | 0.0 | 1.7 | 0.00 | 0.00 | 0.00 | 55 | 1011.0 |
| 20260507071606 | 79 | 0 | 0.0 | 1.7 | 0.00 | 0.00 | 0.00 | 54 | 1010.8 |
| 20260507071523 | 79 | 190 | 0.0 | 1.7 | 0.00 | 0.00 | 0.00 | 55 | 1011.2 |
| 20260507071022 | 79 | 190 | 0.0 | 0.0 | 0.00 | 0.00 | 0.00 | 54 | 1011.2 |
| 20260507070522 | 79 | 190 | 0.0 | 1.7 | 0.00 | 0.00 | 0.00 | 54 | 1011.3 |
| 20260507070108 | 79 | 0 | 0.0 | 1.7 | 0.00 | 0.00 | 0.00 | 54 | 1011.0 |
| 20260507070020 | 79 | 190 | 0.0 | 1.7 | 0.00 | 0.00 | 0.00 | 54 | 1011.2 |
| 20260507065524 | 79 | 190 | 0.0 | 1.7 | 0.00 | 0.00 | 0.00 | 54 | 1011.1 |
| 20260507065020 | 79 | 190 | 0.0 | 2.6 | 0.00 | 0.00 | 0.00 | 54 | 1011.1 |
| 20260507064602 | 79 | 190 | 1.7 | 2.6 | 0.00 | 0.00 | 0.00 | 53 | 1010.9 |
| 20260507064520 | 79 | 190 | 0.9 | 2.6 | 0.00 | 0.00 | 0.00 | 53 | 1011.1 |
| 20260507064020 | 80 | 190 | 0.9 | 2.6 | 0.00 | 0.00 | 0.00 | 53 | 1011.2 |
| 20260507063520 | 80 | 190 | 0.9 | 1.7 | 0.00 | 0.00 | 0.00 | 52 | 1011.2 |
| 20260507063101 | 81 | 190 | 0.0 | 1.7 | 0.00 | 0.00 | 0.00 | 52 | 1011.0 |
| 20260507063019 | 81 | 190 | 0.0 | 1.7 | 0.00 | 0.00 | 0.00 | 52 | 1011.2 |
| 20260507062519 | 81 | 190 | 0.0 | 0.9 | 0.00 | 0.00 | 0.00 | 51 | 1011.2 |
| 20260507062019 | 82 | 190 | 0.0 | 0.0 | 0.00 | 0.00 | 0.00 | 52 | 1011.2 |
| 20260507061558 | 82 | 0 | 0.0 | 0.0 | 0.00 | 0.00 | 0.00 | 51 | 1011.0 |
| 20260507061520 | 81 | 190 | 0.0 | 0.0 | 0.00 | 0.00 | 0.00 | 52 | 1011.2 |
| 20260507061020 | 81 | 190 | 0.0 | 2.6 | 0.00 | 0.00 | 0.00 | 52 | 1011.2 |
| 20260507060518 | 81 | 190 | 0.0 | 3.5 | 0.00 | 0.00 | 0.00 | 52 | 1011.2 |
| 20260507060103 | 82 | 190 | 0.0 | 3.5 | 0.00 | 0.00 | 0.00 | 51 | 1010.9 |
| 20260507060018 | 82 | 190 | 0.9 | 3.5 | 0.00 | 0.00 | 0.00 | 52 | 1011.1 |
| 20260507055518 | 82 | 190 | 0.0 | 0.9 | 0.00 | 0.00 | 0.00 | 51 | 1011.1 |
| 20260507055018 | 82 | 190 | 0.0 | 3.5 | 0.00 | 0.00 | 0.00 | 51 | 1011.1 |
| 20260507054607 | 82 | 190 | 0.9 | 3.5 | 0.00 | 0.00 | 0.00 | 50 | 1010.9 |
| 20260507054518 | 82 | 190 | 0.0 | 3.5 | 0.00 | 0.00 | 0.00 | 51 | 1011.1 |
| 20260507054017 | 82 | 190 | 0.9 | 3.5 | 0.00 | 0.00 | 0.00 | 51 | 1011.1 |
| 20260507053518 | 82 | 190 | 0.9 | 3.5 | 0.00 | 0.00 | 0.00 | 50 | 1011.1 |
| 20260507053100 | 83 | 190 | 0.9 | 3.5 | 0.00 | 0.00 | 0.00 | 49 | 1010.9 |
| 20260507053017 | 83 | 190 | 0.9 | 3.5 | 0.00 | 0.00 | 0.00 | 50 | 1011.1 |
| 20260507052516 | 83 | 190 | 0.9 | 4.3 | 0.00 | 0.00 | 0.00 | 50 | 1011.1 |
| 20260507052017 | 83 | 190 | 0.9 | 4.3 | 0.00 | 0.00 | 0.00 | 49 | 1011.0 |
| 20260507051600 | 83 | 0 | 0.9 | 3.5 | 0.00 | 0.00 | 0.00 | 49 | 1010.9 |
| 20260507051524 | 83 | 190 | 0.9 | 3.5 | 0.00 | 0.00 | 0.00 | 49 | 1011.0 |
| 20260507051016 | 83 | 190 | 0.9 | 3.5 | 0.00 | 0.00 | 0.00 | 49 | 1011.0 |
| 20260507050516 | 83 | 190 | 0.0 | 4.3 | 0.00 | 0.00 | 0.00 | 49 | 1010.9 |
| 20260507050057 | 84 | 0 | 0.9 | 4.3 | 0.00 | 0.00 | 0.00 | 48 | 1010.7 |
| 20260507050016 | 84 | 190 | 0.0 | 4.3 | 0.00 | 0.00 | 0.00 | 48 | 1010.9 |
| 20260507045516 | 84 | 190 | 0.9 | 5.2 | 0.00 | 0.00 | 0.00 | 48 | 1010.9 |
| 20260507045016 | 84 | 190 | 0.9 | 5.2 | 0.00 | 0.00 | 0.00 | 47 | 1010.9 |
| 20260507044621 | 85 | 190 | 1.7 | 4.3 | 0.00 | 0.00 | 0.00 | 46 | 1010.7 |
| 20260507044516 | 85 | 190 | 0.9 | 4.3 | 0.00 | 0.00 | 0.00 | 47 | 1010.9 |
| 20260507044017 | 85 | 190 | 0.0 | 4.3 | 0.00 | 0.00 | 0.00 | 47 | 1010.9 |
| 20260507043516 | 85 | 190 | 0.9 | 4.3 | 0.00 | 0.00 | 0.00 | 46 | 1010.7 |
| 20260507043059 | 85 | 0 | 0.0 | 3.5 | 0.00 | 0.00 | 0.00 | 45 | 1010.5 |
| 20260507043015 | 85 | 190 | 0.0 | 3.5 | 0.00 | 0.00 | 0.00 | 46 | 1010.7 |
| 20260507042515 | 85 | 190 | 0.9 | 3.5 | 0.00 | 0.00 | 0.00 | 45 | 1010.6 |
| 20260507042014 | 86 | 190 | 0.9 | 3.5 | 0.00 | 0.00 | 0.00 | 45 | 1010.5 |
| 20260507041607 | 86 | 190 | 0.0 | 3.5 | 0.00 | 0.00 | 0.00 | 44 | 1010.2 |
| 20260507041514 | 86 | 190 | 0.0 | 3.5 | 0.00 | 0.00 | 0.00 | 45 | 1010.4 |
| 20260507041014 | 86 | 190 | 0.0 | 2.6 | 0.00 | 0.00 | 0.00 | 45 | 1010.2 |
| 20260507040515 | 86 | 190 | 0.9 | 2.6 | 0.00 | 0.00 | 0.00 | 44 | 1010.0 |
| 20260507040108 | 87 | 0 | 0.0 | 2.6 | 0.00 | 0.00 | 0.00 | 43 | 1009.9 |
| 20260507040014 | 86 | 190 | 0.0 | 2.6 | 0.00 | 0.00 | 0.00 | 44 | 1009.9 |
| 20260507035514 | 87 | 190 | 0.0 | 4.3 | 0.00 | 0.00 | 0.00 | 44 | 1009.8 |
| 20260507035014 | 87 | 190 | 0.9 | 4.3 | 0.00 | 0.00 | 0.00 | 43 | 1009.7 |
| 20260507034559 | 87 | 190 | 0.9 | 4.3 | 0.00 | 0.00 | 0.00 | 42 | 1009.6 |
| 20260507034520 | 87 | 190 | 0.9 | 4.3 | 0.00 | 0.00 | 0.00 | 43 | 1009.7 |
| 20260507034013 | 87 | 190 | 0.9 | 4.3 | 0.00 | 0.00 | 0.00 | 43 | 1009.5 |
| 20260507033516 | 88 | 190 | 0.9 | 4.3 | 0.00 | 0.00 | 0.00 | 43 | 1009.4 |
| 20260507033059 | 88 | 190 | 1.7 | 4.3 | 0.00 | 0.00 | 0.00 | 42 | 1009.5 |
| 20260507033013 | 88 | 190 | 0.9 | 4.3 | 0.00 | 0.00 | 0.00 | 42 | 1009.3 |
| 20260507032513 | 88 | 190 | 0.0 | 2.6 | 0.00 | 0.00 | 0.00 | 42 | 1009.3 |
| 20260507032012 | 88 | 190 | 0.0 | 4.3 | 0.00 | 0.00 | 0.00 | 42 | 1009.2 |
| 20260507031605 | 88 | 190 | 0.0 | 5.2 | 0.00 | 0.00 | 0.00 | 41 | 1009.2 |
| 20260507031513 | 88 | 190 | 0.0 | 5.2 | 0.00 | 0.00 | 0.00 | 42 | 1009.1 |
| 20260507031012 | 88 | 190 | 1.7 | 4.3 | 0.00 | 0.00 | 0.00 | 42 | 1009.0 |
| 20260507030513 | 88 | 190 | 0.0 | 3.5 | 0.00 | 0.00 | 0.00 | 41 | 1009.0 |
| 20260507030105 | 89 | 190 | 0.0 | 1.7 | 0.00 | 0.00 | 0.00 | 41 | 1009.1 |
| 20260507030017 | 89 | 190 | 0.0 | 1.7 | 0.00 | 0.00 | 0.00 | 41 | 1008.9 |
| 20260507025511 | 89 | 190 | 0.0 | 0.0 | 0.00 | 0.00 | 0.00 | 41 | 1008.9 |
| 20260507025011 | 89 | 190 | 0.0 | 0.0 | 0.00 | 0.00 | 0.00 | 41 | 1009.0 |
| 20260507024556 | 89 | 0 | 0.0 | 3.5 | 0.00 | 0.00 | 0.00 | 40 | 1009.0 |
| 20260507024516 | 89 | 190 | 0.0 | 1.7 | 0.00 | 0.00 | 0.00 | 41 | 1008.8 |
| 20260507024010 | 89 | 190 | 0.0 | 3.5 | 0.00 | 0.00 | 0.00 | 40 | 1008.7 |
| 20260507023513 | 90 | 190 | 0.0 | 3.5 | 0.00 | 0.00 | 0.00 | 40 | 1008.6 |
| 20260507023058 | 90 | 190 | 0.9 | 3.5 | 0.00 | 0.00 | 0.00 | 39 | 1008.5 |
| 20260507023010 | 90 | 190 | 0.9 | 3.5 | 0.00 | 0.00 | 0.00 | 40 | 1008.5 |
| 20260507022510 | 90 | 190 | 0.0 | 0.0 | 0.00 | 0.00 | 0.00 | 40 | 1008.4 |
| 20260507022015 | 90 | 190 | 0.0 | 2.6 | 0.00 | 0.00 | 0.00 | 39 | 1008.2 |
| 20260507021558 | 91 | 0 | 0.0 | 4.3 | 0.00 | 0.00 | 0.00 | 39 | 1008.1 |
| 20260507021510 | 90 | 190 | 0.0 | 4.3 | 0.00 | 0.00 | 0.00 | 39 | 1008.2 |
| 20260507021010 | 91 | 190 | 0.9 | 4.3 | 0.00 | 0.00 | 0.00 | 39 | 1008.0 |
| 20260507020510 | 91 | 190 | 0.0 | 4.3 | 0.00 | 0.00 | 0.00 | 38 | 1007.8 |
| 20260507020103 | 91 | 0 | 0.9 | 7.0 | 0.00 | 0.00 | 0.00 | 38 | 1007.6 |
| 20260507020012 | 91 | 190 | 0.9 | 7.0 | 0.00 | 0.00 | 0.00 | 38 | 1007.6 |
| 20260507015513 | 92 | 190 | 1.7 | 7.0 | 0.00 | 0.00 | 0.00 | 38 | 1007.5 |
| 20260507015009 | 92 | 190 | 1.7 | 5.2 | 0.00 | 0.00 | 0.00 | 37 | 1007.3 |
| 20260507014607 | 92 | 190 | 0.9 | 9.6 | 0.00 | 0.00 | 0.00 | 36 | 1007.3 |
| 20260507014512 | 92 | 190 | 0.9 | 9.6 | 0.00 | 0.00 | 0.00 | 37 | 1007.3 |
| 20260507014008 | 93 | 190 | 3.5 | 9.6 | 0.00 | 0.00 | 0.00 | 36 | 1007.2 |
| 20260507013508 | 93 | 190 | 2.6 | 7.8 | 0.00 | 0.00 | 0.00 | 36 | 1007.1 |
| 20260507013059 | 93 | 190 | 1.7 | 8.7 | 0.00 | 0.00 | 0.00 | 35 | 1007.1 |
| 20260507013008 | 93 | 190 | 0.9 | 8.7 | 0.00 | 0.00 | 0.00 | 35 | 1007.0 |
| 20260507012509 | 94 | 190 | 2.6 | 9.6 | 0.00 | 0.00 | 0.00 | 35 | 1006.9 |
| 20260507012009 | 94 | 190 | 4.3 | 9.6 | 0.00 | 0.00 | 0.00 | 34 | 1006.8 |
| 20260507011604 | 95 | 190 | 3.5 | 10.4 | 0.00 | 0.00 | 0.00 | 33 | 1006.7 |
| 20260507011508 | 95 | 190 | 2.6 | 8.7 | 0.00 | 0.00 | 0.00 | 33 | 1006.7 |
| 20260507011007 | 95 | 190 | 3.5 | 10.4 | 0.00 | 0.00 | 0.00 | 32 | 1006.5 |
| 20260507010506 | 96 | 190 | 3.5 | 10.4 | 0.00 | 0.00 | 0.00 | 32 | 1006.4 |
| 20260507010058 | 97 | 190 | 0.9 | 8.7 | 0.00 | 0.00 | 0.00 | 30 | 1006.3 |
| 20260507010010 | 97 | 190 | 0.0 | 8.7 | 0.00 | 0.00 | 0.00 | 30 | 1006.3 |
| 20260507005507 | 97 | 190 | 2.6 | 8.7 | 0.00 | 0.00 | 0.00 | 29 | 1006.2 |
| 20260507005006 | 99 | 190 | 0.9 | 7.0 | 0.00 | 0.00 | 0.00 | 24 | 1006.1 |
| 20260507004558 | 99 | 190 | 0.9 | 7.0 | 0.00 | 0.00 | 0.00 | 20 | 1005.9 |
| 20260507004504 | 99 | 190 | 0.9 | 7.0 | 0.00 | 0.00 | 0.00 | 21 | 1005.9 |
| 20260507004005 | 99 | 190 | 1.7 | 7.0 | 0.00 | 0.00 | 0.00 | 20 | 1005.6 |
| 20260507003505 | 100 | 190 | 1.7 | 7.0 | 0.00 | 0.00 | 0.00 | 20 | 1005.5 |
| 20260507003100 | 100 | 190 | 2.6 | 9.6 | 0.00 | 0.00 | 0.00 | 20 | 1005.3 |
| 20260507003008 | 100 | 190 | 2.6 | 9.6 | 0.00 | 0.00 | 0.00 | 20 | 1005.3 |
| 20260507002503 | 100 | 190 | 3.5 | 9.6 | 0.00 | 0.00 | 0.00 | 20 | 1005.1 |
| 20260507002007 | 100 | 190 | 1.7 | 8.7 | 0.00 | 0.00 | 0.00 | 20 | 1005.1 |
| 20260507001615 | 101 | 190 | 3.5 | 8.7 | 0.00 | 0.00 | 0.00 | 20 | 1005.0 |
| 20260507001504 | 100 | 190 | 2.6 | 8.7 | 0.00 | 0.00 | 0.00 | 20 | 1005.0 |
| 20260507001004 | 101 | 190 | 2.6 | 8.7 | 0.00 | 0.00 | 0.00 | 20 | 1004.9 |
| 20260507000503 | 101 | 190 | 2.6 | 8.7 | 0.00 | 0.00 | 0.00 | 21 | 1004.8 |
| 20260507000101 | 101 | 190 | 3.5 | 7.8 | 0.00 | 0.00 | 0.00 | 20 | 1004.9 |
| 20260507000003 | 101 | 190 | 2.6 | 7.8 | 0.00 | 0.00 | 0.00 | 20 | 1004.8 |
| 20260506235504 | 101 | 190 | 2.6 | 7.0 | 0.00 | 0.00 | 0.00 | 20 | 1004.8 |
| 20260506235002 | 101 | 190 | 1.7 | 5.2 | 0.00 | 0.00 | 0.00 | 20 | 1004.8 |
| 20260506234603 | 101 | 190 | 0.9 | 6.1 | 0.00 | 0.00 | 0.00 | 20 | 1004.8 |
| 20260506234501 | 101 | 190 | 0.9 | 6.1 | 0.00 | 0.00 | 0.00 | 20 | 1004.8 |
| 20260506234002 | 101 | 190 | 1.7 | 10.4 | 0.00 | 0.00 | 0.00 | 20 | 1004.7 |
| 20260506233501 | 101 | 190 | 2.6 | 10.4 | 0.00 | 0.00 | 0.00 | 20 | 1004.8 |
| 20260506233059 | 102 | 190 | 3.5 | 10.4 | 0.00 | 0.00 | 0.00 | 20 | 1004.8 |
| 20260506233002 | 101 | 190 | 3.5 | 10.4 | 0.00 | 0.00 | 0.00 | 21 | 1004.8 |
| 20260506232503 | 102 | 190 | 2.6 | 7.0 | 0.00 | 0.00 | 0.00 | 20 | 1004.7 |
| 20260506232001 | 102 | 190 | 2.6 | 7.0 | 0.00 | 0.00 | 0.00 | 20 | 1004.7 |
| 20260506231602 | 102 | 190 | 1.7 | 7.0 | 0.00 | 0.00 | 0.00 | 20 | 1004.7 |
| 20260506231558 | 102 | 190 | 2.6 | 8.7 | 0.00 | 0.00 | 0.00 | 20 | 1004.7 |
| 20260506231101 | 102 | 190 | 1.7 | 8.7 | 0.00 | 0.00 | 0.00 | 21 | 1004.8 |
| 20260506230600 | 102 | 190 | 2.6 | 7.8 | 0.00 | 0.00 | 0.00 | 21 | 1004.7 |
| 20260506230100 | 102 | 190 | 1.7 | 7.8 | 0.00 | 0.00 | 0.00 | 21 | 1004.7 |
| 20260506230058 | 102 | 190 | 2.6 | 7.8 | 0.00 | 0.00 | 0.00 | 20 | 1004.8 |
| 20260506225600 | 103 | 190 | 1.7 | 6.1 | 0.00 | 0.00 | 0.00 | 21 | 1004.7 |
| 20260506225100 | 102 | 190 | 0.9 | 6.1 | 0.00 | 0.00 | 0.00 | 21 | 1004.7 |
| 20260506224559 | 102 | 190 | 0.0 | 7.0 | 0.00 | 0.00 | 0.00 | 21 | 1004.7 |
| 20260506224059 | 103 | 190 | 2.6 | 6.1 | 0.00 | 0.00 | 0.00 | 21 | 1004.7 |
| 20260506223557 | 102 | 190 | 0.9 | 7.0 | 0.00 | 0.00 | 0.00 | 22 | 1004.8 |
| 20260506223101 | 102 | 190 | 2.6 | 8.7 | 0.00 | 0.00 | 0.00 | 22 | 1004.8 |
| 20260506223057 | 102 | 190 | 1.7 | 10.4 | 0.00 | 0.00 | 0.00 | 21 | 1004.9 |
| 20260506222556 | 102 | 190 | 1.7 | 10.4 | 0.00 | 0.00 | 0.00 | 21 | 1004.9 |
| 20260506222055 | 102 | 190 | 4.3 | 10.4 | 0.00 | 0.00 | 0.00 | 21 | 1004.9 |
| 20260506221601 | 102 | 190 | 2.6 | 8.7 | 0.00 | 0.00 | 0.00 | 21 | 1005.0 |
| 20260506221555 | 102 | 190 | 1.7 | 8.7 | 0.00 | 0.00 | 0.00 | 22 | 1005.0 |
| 20260506221054 | 102 | 190 | 0.0 | 9.6 | 0.00 | 0.00 | 0.00 | 22 | 1005.1 |
| 20260506220555 | 102 | 190 | 2.6 | 9.6 | 0.00 | 0.00 | 0.00 | 22 | 1005.2 |
| 20260506220108 | 102 | 190 | 2.6 | 6.1 | 0.00 | 0.00 | 0.00 | 21 | 1005.2 |
| 20260506220053 | 101 | 190 | 0.9 | 6.1 | 0.00 | 0.00 | 0.00 | 22 | 1005.2 |
| 20260506215552 | 101 | 190 | 0.0 | 10.4 | 0.00 | 0.00 | 0.00 | 22 | 1005.2 |
| 20260506215053 | 101 | 190 | 2.6 | 13.0 | 0.00 | 0.00 | 0.00 | 23 | 1005.4 |
| 20260506214601 | 102 | 190 | 3.5 | 7.8 | 0.00 | 0.00 | 0.00 | 22 | 1005.3 |
| 20260506214551 | 101 | 190 | 3.5 | 13.0 | 0.00 | 0.00 | 0.00 | 22 | 1005.3 |
| 20260506214049 | 101 | 190 | 0.9 | 7.0 | 0.00 | 0.00 | 0.00 | 23 | 1005.5 |
| 20260506213548 | 101 | 190 | 1.7 | 11.3 | 0.00 | 0.00 | 0.00 | 24 | 1005.7 |
| 20260506213103 | 101 | 190 | 5.2 | 11.3 | 0.00 | 0.00 | 0.00 | 23 | 1005.6 |
| 20260506213049 | 101 | 190 | 3.5 | 11.3 | 0.00 | 0.00 | 0.00 | 24 | 1005.7 |
| 20260506212548 | 101 | 190 | 1.7 | 7.0 | 0.00 | 0.00 | 0.00 | 24 | 1005.6 |
| 20260506212048 | 101 | 190 | 0.0 | 4.3 | 0.00 | 0.00 | 0.00 | 24 | 1005.7 |
| 20260506211600 | 100 | 0 | 0.9 | 9.6 | 0.00 | 0.00 | 0.00 | 24 | 1005.8 |
| 20260506211552 | 100 | 190 | 0.9 | 9.6 | 0.00 | 0.00 | 0.00 | 25 | 1005.9 |
| 20260506211045 | 100 | 190 | 4.3 | 9.6 | 0.00 | 0.00 | 0.00 | 24 | 1006.1 |
| 20260506210545 | 100 | 190 | 1.7 | 11.3 | 0.00 | 0.00 | 0.00 | 25 | 1006.1 |
| 20260506210120 | 101 | 190 | 3.5 | 8.7 | 0.00 | 0.00 | 0.00 | 24 | 1006.1 |
| 20260506210044 | 101 | 190 | 5.2 | 11.3 | 0.00 | 0.00 | 0.00 | 25 | 1006.2 |
| 20260506205543 | 101 | 190 | 1.7 | 5.2 | 0.00 | 0.00 | 0.00 | 24 | 1006.3 |
| 20260506205042 | 100 | 190 | 0.0 | 6.1 | 0.00 | 0.00 | 0.00 | 24 | 1006.3 |
| 20260506204559 | 100 | 190 | 3.5 | 10.4 | 0.00 | 0.00 | 0.00 | 25 | 1006.4 |
| 20260506204541 | 100 | 190 | 3.5 | 10.4 | 0.00 | 0.00 | 0.00 | 25 | 1006.4 |
| 20260506204040 | 100 | 190 | 3.5 | 10.4 | 0.00 | 0.00 | 0.00 | 25 | 1006.5 |
| 20260506203540 | 100 | 190 | 1.7 | 8.7 | 0.00 | 0.00 | 0.00 | 24 | 1006.5 |
| 20260506203143 | 100 | 190 | 1.7 | 7.0 | 0.00 | 0.00 | 0.00 | 24 | 1006.7 |
| 20260506203039 | 100 | 190 | 0.9 | 7.0 | 0.00 | 0.00 | 0.00 | 24 | 1006.6 |
| 20260506202538 | 100 | 190 | 0.0 | 3.5 | 0.00 | 0.00 | 0.00 | 25 | 1006.7 |
| 20260506202037 | 100 | 190 | 0.9 | 3.5 | 0.00 | 0.00 | 0.00 | 25 | 1006.7 |
| 20260506201600 | 99 | 190 | 0.9 | 6.1 | 0.00 | 0.00 | 0.00 | 25 | 1006.9 |
| 20260506201536 | 99 | 190 | 0.9 | 5.2 | 0.00 | 0.00 | 0.00 | 26 | 1006.9 |
| 20260506201034 | 99 | 190 | 0.9 | 6.1 | 0.00 | 0.00 | 0.00 | 26 | 1007.1 |
| 20260506200533 | 99 | 190 | 0.9 | 10.4 | 0.00 | 0.00 | 0.00 | 26 | 1007.2 |
| 20260506200032 | 98 | 190 | 2.6 | 12.2 | 0.00 | 0.00 | 0.00 | 27 | 1007.3 |
| 20260506195531 | 99 | 190 | 2.6 | 8.7 | 0.00 | 0.00 | 0.00 | 26 | 1007.4 |
| 20260506195032 | 98 | 190 | 0.9 | 6.1 | 0.00 | 0.00 | 0.00 | 27 | 1007.5 |
| 20260506194601 | 98 | 0 | 0.9 | 7.0 | 0.00 | 0.00 | 0.00 | 26 | 1007.6 |
| 20260506194534 | 98 | 190 | 0.9 | 7.0 | 0.00 | 0.00 | 0.00 | 27 | 1007.7 |
| 20260506194027 | 97 | 190 | 1.7 | 7.0 | 0.00 | 0.00 | 0.00 | 27 | 1007.8 |
| 20260506193525 | 97 | 190 | 2.6 | 9.6 | 0.00 | 0.00 | 0.00 | 27 | 1008.0 |
| 20260506193100 | 97 | 190 | 4.3 | 9.6 | 0.00 | 0.00 | 0.00 | 28 | 1008.1 |
| 20260506193028 | 97 | 190 | 3.5 | 9.6 | 0.00 | 0.00 | 0.00 | 28 | 1008.2 |
| 20260506192522 | 97 | 190 | 0.9 | 4.3 | 0.00 | 0.00 | 0.00 | 27 | 1008.3 |
| 20260506192021 | 97 | 190 | 0.0 | 6.1 | 0.00 | 0.00 | 0.00 | 30 | 1008.4 |
| 20260506191605 | 96 | 190 | 1.7 | 7.8 | 0.00 | 0.00 | 0.00 | 29 | 1008.5 |
| 20260506191520 | 96 | 190 | 0.0 | 7.8 | 0.00 | 0.00 | 0.00 | 29 | 1008.6 |
| 20260506191018 | 96 | 190 | 4.3 | 7.8 | 0.00 | 0.00 | 0.00 | 30 | 1008.7 |
| 20260506190517 | 96 | 190 | 2.6 | 7.0 | 0.00 | 0.00 | 0.00 | 30 | 1008.8 |
| 20260506190058 | 95 | 0 | 2.6 | 7.8 | 0.00 | 0.00 | 0.00 | 30 | 1008.9 |
| 20260506190017 | 95 | 190 | 1.7 | 7.8 | 0.00 | 0.00 | 0.00 | 30 | 1009.0 |
| 20260506185515 | 95 | 190 | 3.5 | 6.1 | 0.00 | 0.00 | 0.00 | 30 | 1009.1 |
| 20260506185016 | 95 | 190 | 1.7 | 7.0 | 0.00 | 0.00 | 0.00 | 30 | 1009.3 |
| 20260506184603 | 95 | 190 | 2.6 | 7.8 | 0.00 | 0.00 | 0.00 | 31 | 1009.4 |
| 20260506184521 | 95 | 190 | 2.6 | 7.8 | 0.00 | 0.00 | 0.00 | 31 | 1009.4 |
| 20260506184013 | 95 | 190 | 3.5 | 7.8 | 0.00 | 0.00 | 0.00 | 31 | 1009.6 |
| 20260506183511 | 95 | 190 | 3.5 | 8.7 | 0.00 | 0.00 | 0.00 | 32 | 1009.7 |
| 20260506183112 | 94 | 190 | 2.6 | 8.7 | 0.00 | 0.00 | 0.00 | 31 | 1009.6 |
| 20260506183009 | 94 | 190 | 2.6 | 8.7 | 0.00 | 0.00 | 0.00 | 32 | 1009.8 |
| 20260506182508 | 95 | 190 | 0.9 | 3.5 | 0.00 | 0.00 | 0.00 | 32 | 1009.8 |
| 20260506182009 | 94 | 190 | 0.0 | 4.3 | 0.00 | 0.00 | 0.00 | 32 | 1010.0 |
| 20260506181601 | 95 | 190 | 0.0 | 5.2 | 0.00 | 0.00 | 0.00 | 32 | 1010.1 |
| 20260506181507 | 94 | 190 | 0.0 | 5.2 | 0.00 | 0.00 | 0.00 | 32 | 1010.1 |
| 20260506181007 | 94 | 190 | 1.7 | 7.8 | 0.00 | 0.00 | 0.00 | 32 | 1010.2 |
| 20260506180507 | 94 | 190 | 3.5 | 7.8 | 0.00 | 0.00 | 0.00 | 33 | 1010.3 |
| 20260506180058 | 94 | 190 | 0.9 | 5.2 | 0.00 | 0.00 | 0.00 | 32 | 1010.2 |
| 20260506180007 | 94 | 190 | 0.9 | 4.3 | 0.00 | 0.00 | 0.00 | 33 | 1010.3 |
| 20260506175504 | 94 | 190 | 0.0 | 5.2 | 0.00 | 0.00 | 0.00 | 34 | 1010.4 |
| 20260506175004 | 94 | 190 | 0.9 | 6.1 | 0.00 | 0.00 | 0.00 | 33 | 1010.5 |
| 20260506174609 | 94 | 190 | 1.7 | 6.1 | 0.00 | 0.00 | 0.00 | 33 | 1010.4 |
| 20260506174002 | 93 | 190 | 0.9 | 3.5 | 0.00 | 0.00 | 0.00 | 34 | 1010.7 |
| 20260506173601 | 92 | 190 | 0.0 | 4.3 | 0.00 | 0.00 | 0.00 | 35 | 1010.8 |
| 20260506173128 | 92 | 190 | 0.0 | 5.2 | 0.00 | 0.00 | 0.00 | 35 | 1010.9 |
| 20260506173059 | 92 | 0 | 0.9 | 5.2 | 0.00 | 0.00 | 0.00 | 35 | 1010.7 |
| 20260506172558 | 92 | 190 | 0.0 | 6.1 | 0.00 | 0.00 | 0.00 | 35 | 1010.9 |
| 20260506172057 | 91 | 190 | 0.9 | 6.1 | 0.00 | 0.00 | 0.00 | 36 | 1011.0 |
| 20260506171611 | 91 | 190 | 1.7 | 6.1 | 0.00 | 0.00 | 0.00 | 36 | 1010.9 |
| 20260506171559 | 91 | 190 | 0.9 | 6.1 | 0.00 | 0.00 | 0.00 | 36 | 1011.2 |
| 20260506171056 | 91 | 190 | 2.6 | 6.1 | 0.00 | 0.00 | 0.00 | 37 | 1011.2 |
| 20260506170556 | 91 | 190 | 2.6 | 5.2 | 0.00 | 0.00 | 0.00 | 37 | 1011.4 |
| 20260506170103 | 91 | 190 | 0.9 | 6.1 | 0.00 | 0.00 | 0.00 | 37 | 1011.1 |
| 20260506170055 | 91 | 190 | 0.9 | 6.1 | 0.00 | 0.00 | 0.00 | 37 | 1011.4 |
| 20260506165554 | 90 | 190 | 0.9 | 6.1 | 0.00 | 0.00 | 0.00 | 39 | 1011.5 |
| 20260506165055 | 90 | 190 | 1.7 | 4.3 | 0.00 | 0.00 | 0.00 | 38 | 1011.6 |
| 20260506164600 | 90 | 190 | 1.7 | 4.3 | 0.00 | 0.00 | 0.00 | 38 | 1011.3 |
| 20260506164553 | 90 | 190 | 1.7 | 4.3 | 0.00 | 0.00 | 0.00 | 39 | 1011.7 |